Time,TemperatureF,DewpointF,PressureIn,WindDirection,WindDirectionDegrees,WindSpeedMPH,WindSpeedGustMPH,Humidity,HourlyPrecipIn,Conditions,Clouds,dailyrainin,SolarRadiationWatts/m^2,SoftwareType,DateUTC
2013-10-09 01:52:00,65.0,55.0,-100.00,NNE,31,9.0,23.0,69,0.16,,,1.85,0.000000,,2013-10-09 05:52:00,
2013-10-09 02:02:00,65.0,55.0,-100.00,NNE,31,9.0,23.0,69,0.16,,,1.85,0.000000,,2013-10-09 06:02:00,
2013-10-09 02:12:00,65.0,55.0,-100.00,NNE,31,9.0,23.0,69,0.16,,,1.85,0.000000,,2013-10-09 06:12:00,
2013-10-09 03:52:00,65.0,55.0,-100.00,NNE,29,11.0,25.0,69,0.31,,,2.30,0.000000,,2013-10-09 07:52:00,
2013-10-09 04:02:00,65.0,55.0,-100.00,NNE,29,11.0,25.0,69,0.31,,,2.30,0.000000,,2013-10-09 08:02:00,
2013-10-09 04:12:00,65.0,55.0,-100.00,NNE,29,11.0,25.0,69,0.31,,,2.30,0.000000,,2013-10-09 08:12:00,
2013-10-09 04:53:00,65.0,55.0,-100.00,NNE,32,10.0,25.0,69,0.43,,,2.73,0.000000,,2013-10-09 08:53:00,
2013-10-09 05:02:00,65.0,55.0,-100.00,NNE,32,10.0,25.0,69,0.43,,,2.73,0.000000,,2013-10-09 09:02:00,
2013-10-09 05:22:00,65.0,55.0,-100.00,NNE,32,10.0,25.0,69,0.43,,,2.73,0.000000,,2013-10-09 09:22:00,
2013-10-09 05:53:00,66.0,56.0,-100.00,NNE,32,12.0,28.0,69,0.37,,,3.09,0.000000,,2013-10-09 09:53:00,
2013-10-09 06:03:00,66.0,56.0,-100.00,NNE,32,12.0,28.0,69,0.37,,,3.09,0.000000,,2013-10-09 10:03:00,
2013-10-09 06:13:00,66.0,56.0,-100.00,NNE,32,12.0,28.0,69,0.37,,,3.09,0.000000,,2013-10-09 10:13:00,
2013-10-09 06:23:00,66.0,56.0,-100.00,NNE,32,12.0,28.0,69,0.37,,,3.09,0.000000,,2013-10-09 10:23:00,
2013-10-09 06:53:00,66.0,56.0,-100.00,NE,37,12.0,25.0,69,0.50,,,3.47,0.000000,,2013-10-09 10:53:00,
2013-10-09 07:02:00,66.0,56.0,-100.00,NE,37,12.0,25.0,69,0.50,,,3.47,0.000000,,2013-10-09 11:02:00,
2013-10-09 07:12:00,66.0,56.0,-100.00,NE,37,12.0,25.0,69,0.50,,,3.47,0.000000,,2013-10-09 11:12:00,
2013-10-09 07:52:00,67.0,56.0,-100.00,NE,37,12.0,30.0,69,0.31,,,3.72,0.000000,,2013-10-09 11:52:00,
2013-10-09 08:01:00,67.0,56.0,-100.00,NE,37,12.0,30.0,69,0.31,,,3.72,0.000000,,2013-10-09 12:01:00,
2013-10-09 08:12:00,67.0,56.0,-100.00,NE,37,12.0,30.0,69,0.31,,,3.72,0.000000,,2013-10-09 12:12:00,
2013-10-09 08:22:00,67.0,56.0,-100.00,NE,37,12.0,30.0,69,0.31,,,3.72,0.000000,,2013-10-09 12:22:00,
2013-10-09 08:52:00,68.0,57.0,-100.00,NE,36,12.0,28.0,69,0.09,,,3.68,8.000000,,2013-10-09 12:52:00,
2013-10-09 09:02:00,68.0,57.0,-100.00,NE,36,12.0,28.0,69,0.09,,,3.68,8.000000,,2013-10-09 13:02:00,
2013-10-09 09:12:00,68.0,57.0,-100.00,NE,36,12.0,28.0,69,0.09,,,3.68,8.000000,,2013-10-09 13:12:00,
2013-10-09 09:22:00,68.0,57.0,-100.00,NE,36,12.0,28.0,69,0.09,,,3.68,8.000000,,2013-10-09 13:22:00,
2013-10-09 12:53:00,71.0,59.0,-100.00,NE,35,10.0,23.0,67,0.00,,,3.67,457.000000,,2013-10-09 16:53:00,
2013-10-09 13:03:00,71.0,59.0,-100.00,NE,35,10.0,23.0,67,0.00,,,3.67,457.000000,,2013-10-09 17:03:00,
2013-10-09 13:12:00,71.0,59.0,-100.00,NE,35,10.0,23.0,67,0.00,,,3.67,457.000000,,2013-10-09 17:12:00,
2013-10-09 13:22:00,71.0,59.0,-100.00,NE,35,10.0,23.0,67,0.00,,,3.67,457.000000,,2013-10-09 17:22:00,
2013-10-09 23:55:00,70.0,59.0,-100.00,NW,316,5.0,14.0,69,0.00,,,2.82,0.000000,,2013-10-10 03:55:00,